COSMOS 1275 DEB, 42116

Orbit data source: Space-Track

COSMOS 1275 DEB, 42116 is space debris in LEO originally from a launch on Thu, 04 Jun 1981 UTC launched from the Plesetsk Missile And Space Complex (PKMTR). Debris objects in space refer to the collection of defunct objects orbiting the Earth. Examples of debris include non-operational satellites, rocket bodies, and fragments generated from explosions, collisions, or faulty payload assembly.

Loading next visibility...
Identifier
42116, 1981-053QC
Orbit
LEO
Country
Flag of CISCIS
Related business
Manufacturer
Unknown
Mission
Spacecraft
Bus & Motor
Unknown
Mass
Unknown
Launch date (UTC)
1981-06-04 (45 years ago)
Launch vehicle
Unknown
Launch site
Plesetsk Missile And Space Complex (PKMTR)
Object type
Payload
Rocket body
Debris
Shape & HBR
Unknown shape, 0.1 m
Radar Cross Section
Small (<0.1 m²)

Expand to show TLE details & history
Last TLE update: 1 week ago

TLE from 1 week ago
0 COSMOS 1275 DEB
1 42116U 81053QC  26203.06765137  .00006010  00000-0  14697-2 0  9995
2 42116  83.1199 319.7571 0017630  19.6674 104.7420 14.52345877911128
Epoch: 2026-07-22T01:37Z
TLE epoch observation values (Epoch: 2026-07-22T01:37:25.078Z)
Latitude
54.90261°
Longitude
165.74112°
Altitude
730.318 km
Speed
7.494 km/s
True Right ascension
08h 39m 41s
True Declination
54° 44' 24"
Sunlit
Object was in daylight at epoch
Visualization orbit readout
Latitude
Unknown
Longitude
Unknown
Altitude
Unknown
Speed
Unknown
Apparent Right ascension
Unknown
Apparent Declination
Unknown
Sunlit
N/A
Visualization observer readout
Local Sidereal Time
09:32:11
Azimuth
Unknown
Elevation
Unknown
Doppler factor
Unknown
Orbital elements
Apogee altitude
727.538 km
Perigee altitude
702.527 km
Semi-major axis
7,093.17 km
Eccentricity
0.00176
Inclination
83.1199°
RAAN
319.7571°
Arg. of periapsis
19.6674°
True anomaly
104.93726°
Mean anomaly
104.742°
Eccentric anomaly
104.83964°
Mean motion
3.63314 °/min
Orbital period
99.09 mins
BSTAR
0.0014697
Loading maneuver chart data...
Computing Atmospheric mass density...
Loading historical data...
Loading historical data...
Loading historical data...
Loading historical data...
Loading historical data...
Loading historical data...
Loading historical data...

Documentation

Showing up to 5 results
|